• In Netherlands
  • List of Countries
  • For 7 days
  • Water Temperature
  • Satellite Maps
  • Weather Map
  • Weather Widgets
  • user-avatar
    Login

    Hourly Weather Abovyan

    Today, 20 February, Monday

    Time Temperature Precipitation Wind Pressure Humidity
    00:00 -11°C° 0 mm 1 mps 673 mmHg 91%
    01:00 -11°C° 0 mm 1 mps 673 mmHg 91%
    02:00 -11°C° 0 mm 1 mps 673 mmHg 91%
    03:00 -12°C° 0 mm 1 mps 672 mmHg 91%
    04:00 -12°C° 0 mm 1 mps 672 mmHg 91%
    05:00 -12°C° 0 mm 1 mps 672 mmHg 92%
    06:00 -12°C° 0 mm 1 mps 672 mmHg 92%
    07:00 -8°C° 0 mm 1 mps 673 mmHg 90%
    08:00 -3°C° 0 mm 1 mps 674 mmHg 87%
    09:00 +1°C° 0 mm 1 mps 675 mmHg 85%
    10:00 +2°C° 0 mm 1 mps 675 mmHg 84%
    11:00 +3°C° 0 mm 1 mps 675 mmHg 84%
    12:00 +5°C° 0 mm 1 mps 674 mmHg 83%
    13:00 +5°C° 0 mm 1 mps 674 mmHg 84%
    14:00 +5°C° 0 mm 1 mps 673 mmHg 85%
    15:00 +5°C° 0 mm 1 mps 673 mmHg 86%
    16:00 +1°C° 0 mm 1 mps 671 mmHg 88%
    17:00 -3°C° 0 mm 1 mps 670 mmHg 90%
    18:00 -8°C° 0 mm 1 mps 669 mmHg 93%
    19:00 -8°C° 0 mm 1 mps 669 mmHg 91%
    20:00 -9°C° 0 mm 1 mps 669 mmHg 89%
    21:00 -9°C° 0 mm 1 mps 669 mmHg 88%
    22:00 -9°C° 0 mm 1 mps 669 mmHg 88%
    23:00 -10°C° 0 mm 1 mps 669 mmHg 88%

    Tomorrow, 21 February, Tuesday

    Time Temperature Precipitation Wind Pressure Humidity
    00:00 -10°C° 0 mm 1 mps 669 mmHg 88%
    01:00 -10°C° 0 mm 1 mps 668 mmHg 88%
    02:00 -10°C° 0 mm 1 mps 668 mmHg 88%
    03:00 -11°C° 0 mm 1 mps 668 mmHg 88%
    04:00 -11°C° 0 mm 1 mps 668 mmHg 87%
    05:00 -11°C° 0 mm 1 mps 668 mmHg 87%
    06:00 -10°C° 0 mm 1 mps 667 mmHg 86%
    07:00 -7°C° 0 mm 1 mps 669 mmHg 84%
    08:00 -3°C° 0 mm 1 mps 670 mmHg 81%
    09:00 +1°C° 0 mm 1 mps 671 mmHg 79%
    10:00 +2°C° 0 mm 1 mps 670 mmHg 77%
    11:00 +4°C° 0 mm 1 mps 670 mmHg 76%
    12:00 +5°C° 0 mm 1 mps 670 mmHg 74%
    13:00 +5°C° 0 mm 1 mps 669 mmHg 75%
    14:00 +5°C° 0 mm 1 mps 669 mmHg 77%
    15:00 +5°C° 0 mm 1 mps 668 mmHg 78%
    16:00 +1°C° 0 mm 1 mps 667 mmHg 81%
    17:00 -3°C° 0 mm 1 mps 666 mmHg 84%
    18:00 -8°C° 0 mm 1 mps 665 mmHg 87%
    19:00 -9°C° 0 mm 1 mps 665 mmHg 87%
    20:00 -10°C° 0 mm 1 mps 665 mmHg 87%
    21:00 -11°C° 0 mm 1 mps 666 mmHg 86%
    22:00 -10°C° 0 mm 1 mps 666 mmHg 85%
    23:00 -10°C° 0 mm 1 mps 666 mmHg 84%

    Day after tomorrow, 22 February, Wednesday

    Time Temperature Precipitation Wind Pressure Humidity
    00:00 -10°C° 0 mm 1 mps 666 mmHg 83%
    01:00 -9°C° 0 mm 1 mps 667 mmHg 82%
    02:00 -9°C° 0 mm 1 mps 667 mmHg 82%
    03:00 -9°C° 0 mm 1 mps 667 mmHg 82%
    04:00 -9°C° 0 mm 1 mps 667 mmHg 82%
    05:00 -9°C° 0 mm 1 mps 667 mmHg 81%
    06:00 -10°C° 0 mm 1 mps 667 mmHg 81%
    07:00 -7°C° 0 mm 1 mps 668 mmHg 80%
    08:00 -3°C° 0 mm 1 mps 669 mmHg 78%
    09:00 0°C° 0 mm 1 mps 670 mmHg 76%
    10:00 +1°C° 0 mm 1 mps 669 mmHg 76%
    11:00 +1°C° 0 mm 2 mps 669 mmHg 76%
    12:00 +3°C° 0 mm 2 mps 669 mmHg 75%
    13:00 +3°C° 0 mm 2 mps 669 mmHg 77%
    14:00 +3°C° 0 mm 2 mps 668 mmHg 79%
    15:00 +3°C° 0 mm 2 mps 668 mmHg 81%
    16:00 +1°C° 0 mm 2 mps 668 mmHg 83%
    17:00 -2°C° 0 mm 2 mps 667 mmHg 86%
    18:00 -5°C° 0 mm 2 mps 667 mmHg 89%
    19:00 -5°C° 0.1 mm 2 mps 667 mmHg 88%
    20:00 -3°C° 0.1 mm 1 mps 668 mmHg 88%
    21:00 -3°C° 0.1 mm 1 mps 668 mmHg 87%
    22:00 -2°C° 0.1 mm 1 mps 668 mmHg 87%
    23:00 -2°C° 0.1 mm 1 mps 669 mmHg 87%

    23 February, Thursday

    Time Temperature Precipitation Wind Pressure Humidity
    00:00 -1°C° 0.1 mm 1 mps 669 mmHg 87%
    01:00 -1°C° 0.2 mm 1 mps 669 mmHg 87%
    02:00 -1°C° 0.2 mm 1 mps 669 mmHg 88%
    03:00 -1°C° 0.2 mm 1 mps 669 mmHg 88%
    04:00 -1°C° 0.2 mm 1 mps 669 mmHg 89%
    05:00 -1°C° 0.2 mm 1 mps 669 mmHg 89%
    06:00 -1°C° 0.2 mm 1 mps 670 mmHg 89%
    07:00 0°C° 0.1 mm 1 mps 670 mmHg 88%
    08:00 +1°C° 0.1 mm 1 mps 671 mmHg 86%
    09:00 +1°C° 0.1 mm 1 mps 671 mmHg 84%
    10:00 +2°C° 0 mm 1 mps 671 mmHg 83%
    11:00 +3°C° 0 mm 1 mps 672 mmHg 83%
    12:00 +5°C° 0 mm 1 mps 672 mmHg 82%
    13:00 +4°C° 0 mm 2 mps 671 mmHg 83%
    14:00 +4°C° 0 mm 2 mps 671 mmHg 84%
    15:00 +4°C° 0 mm 2 mps 671 mmHg 85%
    16:00 +2°C° 0 mm 2 mps 671 mmHg 88%
    17:00 -2°C° 0 mm 2 mps 671 mmHg 90%
    18:00 -2°C° 0 mm 1 mps 671 mmHg 92%
    19:00 -3°C° 0 mm 1 mps 671 mmHg 92%
    20:00 -4°C° 0 mm 1 mps 671 mmHg 91%
    21:00 -6°C° 0 mm 1 mps 671 mmHg 90%
    22:00 -6°C° 0 mm 1 mps 672 mmHg 89%
    23:00 -6°C° 0 mm 1 mps 672 mmHg 88%

    24 February, Friday

    Time Temperature Precipitation Wind Pressure Humidity
    00:00 -7°C° 0 mm 1 mps 672 mmHg 87%
    01:00 -6°C° 0 mm 1 mps 672 mmHg 87%
    02:00 -6°C° 0 mm 1 mps 672 mmHg 86%
    03:00 -6°C° 0 mm 1 mps 672 mmHg 86%
    04:00 -6°C° 0 mm 1 mps 672 mmHg 86%
    05:00 -6°C° 0 mm 1 mps 672 mmHg 85%
    06:00 -6°C° 0 mm 1 mps 672 mmHg 85%
    07:00 -2°C° 0 mm 1 mps 673 mmHg 83%
    08:00 0°C° 0 mm 1 mps 674 mmHg 81%
    09:00 +3°C° 0 mm 1 mps 674 mmHg 78%
    10:00 +4°C° 0 mm 1 mps 674 mmHg 79%
    11:00 +5°C° 0 mm 1 mps 674 mmHg 80%
    12:00 +6°C° 0 mm 1 mps 673 mmHg 80%
    13:00 +6°C° 0 mm 1 mps 673 mmHg 82%
    14:00 +7°C° 0 mm 1 mps 673 mmHg 84%
    15:00 +7°C° 0 mm 1 mps 673 mmHg 86%
    16:00 +4°C° 0 mm 1 mps 672 mmHg 88%
    17:00 +1°C° 0 mm 1 mps 672 mmHg 90%
    18:00 -2°C° 0 mm 1 mps 671 mmHg 92%
    19:00 -3°C° 0 mm 1 mps 671 mmHg 91%
    20:00 -3°C° 0 mm 1 mps 672 mmHg 91%
    21:00 -4°C° 0 mm 1 mps 672 mmHg 91%
    22:00 -4°C° 0 mm 1 mps 672 mmHg 91%
    23:00 -6°C° 0 mm 1 mps 672 mmHg 90%

    25 February, Saturday

    Time Temperature Precipitation Wind Pressure Humidity
    00:00 -6°C° 0 mm 1 mps 672 mmHg 90%
    01:00 -6°C° 0 mm 1 mps 672 mmHg 89%
    02:00 -6°C° 0 mm 1 mps 672 mmHg 89%
    03:00 -6°C° 0 mm 1 mps 671 mmHg 88%
    04:00 -6°C° 0 mm 1 mps 671 mmHg 87%
    05:00 -6°C° 0 mm 1 mps 671 mmHg 87%
    06:00 -6°C° 0 mm 1 mps 671 mmHg 86%
    07:00 -2°C° 0 mm 1 mps 672 mmHg 84%
    08:00 +1°C° 0 mm 1 mps 673 mmHg 82%
    09:00 +4°C° 0 mm 1 mps 674 mmHg 80%
    10:00 +5°C° 0 mm 1 mps 673 mmHg 80%
    11:00 +5°C° 0 mm 2 mps 672 mmHg 81%
    12:00 +6°C° 0 mm 2 mps 672 mmHg 81%
    13:00 +6°C° 0 mm 2 mps 671 mmHg 82%
    14:00 +6°C° 0 mm 2 mps 671 mmHg 83%
    15:00 +6°C° 0 mm 2 mps 671 mmHg 84%
    16:00 +4°C° 0 mm 2 mps 670 mmHg 86%
    17:00 +2°C° 0 mm 2 mps 670 mmHg 87%
    18:00 -1°C° 0 mm 2 mps 669 mmHg 89%
    19:00 -2°C° 0 mm 2 mps 669 mmHg 89%
    20:00 -2°C° 0 mm 2 mps 669 mmHg 88%
    21:00 -1°C° 0 mm 1 mps 670 mmHg 87%
    22:00 -1°C° 0 mm 1 mps 669 mmHg 88%
    23:00 -1°C° 0 mm 1 mps 669 mmHg 88%
    Show more